{"data":{"norad_id":65043,"epoch":"2026-05-25T02:03:52.924608Z","epoch_age_seconds":57680,"freshness":"FRESH","line1":"1 65043U 25162A   26145.08602922 -.00000102  00000+0  47963-4 0  9997","line2":"2 65043  50.0012 348.8008 0000477  43.5442 316.5467 13.29323839 40277","mean_motion":13.29323839,"eccentricity":4.77e-5,"inclination_deg":50.0012,"raan_deg":348.8008,"arg_perigee_deg":43.5442,"mean_anomaly_deg":316.5467,"bstar":4.7963e-5,"rev_number":4027,"period_min":108.32574860639,"perigee_km":1148.9556703387,"apogee_km":1149.6737892338,"semimajor_km":7527.4517297862,"source":"CELESTRAK","updated_at":"2026-05-25T13:38:05.086466Z"}}